Location: Brodeslavy
(49.9527°N, 13.5567°E)
Time: 16:22:54
(UTC+00:00)

SL-4 R/B - Pass Details

Date: 17 June 2025
Orbit: 393 x 545 km, 51.6° (Epoch: 19 July)

Event Time Altitude Azimuth Distance (km) Brightness Sun altitude
Rises 22:25:36 0° 261° (W) 2,706 5.6 -16.1°
Reaches altitude 10° 22:27:52 10° 263° (W) 1,805 4.7 -16.1°
Maximum altitude 22:32:00 76° 350° (N) 552 2.1 -16.2°
Drops below altitude 10° 22:35:59 10° 76° (ENE) 1,748 4.7 -16.3°
Sets 22:38:09 0° 78° (ENE) 2,611 5.5 -16.4°
